Torna al catalogo

STARLINK-34299

AttivoComunicazioniVLEO
NORAD 64383·PAYLOAD·🇺🇸 United States

Lanciato Jun 13, 2025 da Cape Canaveral Space Force Station

Loading…

Prossimi Passaggi (prossime 24 ore)

TLE

AggiornatoSource: CelesTrak SupGP

Epoca: Sep 14, 2026, 22:32 UTC

1 64383C 25127P   26257.93937500 -.00017596  00000+0 -63737-3 0  2574
2 64383  43.0014 191.3875 0001276 261.0742 180.4419 15.27586055    12

Traccia STARLINK-34299 in tempo reale con AllMySat

Download on the App Store